Location: Ward Pound Ridge Reservation
(41.2500°N, 73.6000°W)
Time: 18:15:37
(UTC-04:00)

Vanguard 1 Rocket - Visible Passes

Search period start: 20 April 2018 00:00
Search period end: 30 April 2018 00:00
Orbit: 655 x 4223 km, 34.3° (Epoch: 19 April)

Date Brightness Start Highest point End Pass type
(mag) Time Alt. Az. Time Alt. Az. Time Alt. Az.
20 Apr 11.4 05:13:17 10° S 05:26:52 20° SE 05:36:51 10° ESE visible
21 Apr 11.7 04:06:01 10° SSE 04:13:44 13° SE 04:20:26 10° ESE visible
22 Apr 11.2 05:12:37 10° SSW 05:29:43 26° SSE 05:41:31 10° E visible
23 Apr 11.5 04:02:36 10° S 04:16:29 19° SE 04:27:28 10° ESE visible
24 Apr 11.8 02:59:36 10° SE 03:03:11 10° SE 03:06:36 10° SE visible
24 Apr 11.1 05:12:47 10° SSW 05:32:29 33° SSE 05:45:32 10° E visible
25 Apr 11.4 04:01:27 10° S 04:19:06 25° SE 04:32:28 10° E visible
26 Apr 11.6 02:53:06 10° SSE 03:05:43 16° SE 03:16:41 10° ESE visible
26 Apr 10.9 05:13:32 10° SSW 05:35:11 40° SSE 05:49:13 10° E visible
27 Apr 11.2 04:01:21 10° SSW 04:21:37 31° SE 04:36:40 10° E visible
28 Apr 11.4 02:53:33 13° S 03:08:06 22° SE 03:22:20 10° E visible
28 Apr 10.8 05:14:42 10° SW 05:37:49 47° SSE 05:52:41 10° E visible
29 Apr 11.6 01:46:19 10° SSE 01:54:50 13° SE 02:03:27 10° ESE visible
29 Apr 11.0 04:03:35 13° SSW 04:24:04 38° SSE 04:40:24 10° E visible
